This is the latest recevied weather packets stored in our database for station/object DO1TOB-60. If no packets are shown the sender has not sent any weather packets the latest 1 day(s).
| Time | Temp. | Humidity | Pressure | Rain* | Wind** | Luminosity | Snow |
|---|---|---|---|---|---|---|---|
| 1778002762 | 12.78° C | 94% | 1007.8 hPa | 0 mm | 2.24 m/s, 325° | - | - |
| 1778002702 | 12.78° C | 94% | 1007.8 hPa | 0 mm | 1.79 m/s, 336° | - | - |
| 1778002642 | 12.78° C | 93% | 1007.8 hPa | 0 mm | 1.34 m/s, 338° | - | - |
| 1778002521 | 12.78° C | 93% | 1007.8 hPa | 0 mm | 0.89 m/s, 339° | - | - |
| 1778002461 | 12.78° C | 93% | 1007.9 hPa | 0 mm | 1.34 m/s, 340° | - | - |
| 1778002402 | 12.78° C | 93% | 1007.8 hPa | 0 mm | 1.34 m/s, 322° | - | - |
| 1778002341 | 12.78° C | 94% | 1007.8 hPa | 0 mm | 0.89 m/s, 321° | - | - |
| 1778002282 | 12.78° C | 94% | 1007.8 hPa | 0 mm | 1.34 m/s, 321° | - | - |
| 1778002221 | 12.78° C | 94% | 1007.8 hPa | 0 mm | 1.79 m/s, 338° | - | - |
| 1778002042 | 12.78° C | 93% | 1007.8 hPa | 0 mm | 0.89 m/s, 331° | - | - |
| 1778001982 | 12.78° C | 93% | 1007.8 hPa | 0 mm | 1.34 m/s, 331° | - | - |
| 1778001922 | 12.78° C | 93% | 1007.8 hPa | 0 mm | 1.79 m/s, 331° | - | - |
| 1778001861 | 12.78° C | 93% | 1007.8 hPa | 0 mm | 2.24 m/s, 332° | - | - |
| 1778001741 | 12.78° C | 93% | 1007.8 hPa | 0 mm | 1.34 m/s, 332° | - | - |
| 1778001561 | 12.78° C | 93% | 1007.8 hPa | 0 mm | 0.89 m/s, 337° | - | - |
| 1778001442 | 12.78° C | 93% | 1007.8 hPa | 0 mm | 0.45 m/s, 337° | - | - |
| 1778001382 | 12.78° C | 93% | 1007.8 hPa | 0 mm | 1.34 m/s, 337° | - | - |
| 1778001322 | 12.78° C | 93% | 1007.8 hPa | 0 mm | 0.89 m/s, 333° | - | - |
| 1778001262 | 12.78° C | 93% | 1007.8 hPa | 0 mm | 1.79 m/s, 335° | - | - |
| 1778001201 | 12.78° C | 93% | 1007.8 hPa | 0 mm | 1.34 m/s, 336° | - | - |
| 1778001142 | 12.78° C | 93% | 1007.8 hPa | 0 mm | 1.34 m/s, 339° | - | - |
| 1778001082 | 12.78° C | 93% | 1007.8 hPa | 0 mm | 1.34 m/s, 330° | - | - |
| 1778001022 | 12.78° C | 93% | 1007.8 hPa | 0 mm | 1.79 m/s, 336° | - | - |
| 1778000963 | 12.78° C | 93% | 1007.8 hPa | 0 mm | 2.24 m/s, 331° | - | - |
| 1778000842 | 12.78° C | 93% | 1007.8 hPa | 0 mm | 0.89 m/s, 342° | - | - |
* Rain latest hour (hover to see other rain measurements)
** Current wind speed in m/s (hover to see current wind gust speed)